When you browse on this site, cookies collect data to enhance your experience and personalize the content and advertising you see.
Visit our Privacy Policy to learn more. By continuing to use the site, you agree to this use of cookies and data.
  • In Netherlands
  • List of Countries
  • For 7 days
  • Water Temperature
  • Satellite Maps
  • Weather Map
  • Weather Widgets
  • user-avatar
    Login

    Hourly Weather Alicante

    Today, 18 November, Sunday

    Time Temperature Precipitation Wind Pressure Humidity
    00:00 +14°C° 0 mm 2 mps 758 mmHg 92%
    01:00 +14°C° 0 mm 2 mps 757 mmHg 91%
    02:00 +13°C° 0 mm 3 mps 757 mmHg 91%
    03:00 +13°C° 0 mm 3 mps 757 mmHg 90%
    04:00 +13°C° 0 mm 3 mps 756 mmHg 90%
    05:00 +13°C° 0 mm 3 mps 756 mmHg 90%
    06:00 +13°C° 0 mm 3 mps 756 mmHg 90%
    07:00 +14°C° 0 mm 4 mps 756 mmHg 87%
    08:00 +15°C° 0 mm 4 mps 756 mmHg 84%
    09:00 +15°C° 0 mm 4 mps 755 mmHg 81%
    10:00 +16°C° 0.1 mm 5 mps 755 mmHg 79%
    11:00 +16°C° 0.1 mm 5 mps 755 mmHg 77%
    12:00 +17°C° 0.1 mm 6 mps 755 mmHg 75%
    13:00 +17°C° 0 mm 6 mps 754 mmHg 74%
    14:00 +16°C° 0 mm 6 mps 754 mmHg 74%
    15:00 +16°C° 0 mm 7 mps 753 mmHg 74%
    16:00 +16°C° 0.2 mm 7 mps 753 mmHg 77%
    17:00 +15°C° 0.2 mm 6 mps 753 mmHg 81%
    18:00 +15°C° 0.2 mm 6 mps 753 mmHg 84%
    19:00 +15°C° 0.5 mm 6 mps 753 mmHg 85%
    20:00 +15°C° 0.5 mm 6 mps 753 mmHg 86%
    21:00 +14°C° 0.5 mm 6 mps 752 mmHg 87%
    22:00 +14°C° 1.9 mm 6 mps 752 mmHg 88%
    23:00 +14°C° 1.9 mm 6 mps 752 mmHg 89%

    Tomorrow, 19 November, Monday

    Time Temperature Precipitation Wind Pressure Humidity
    00:00 +14°C° 1.9 mm 6 mps 751 mmHg 90%
    01:00 +14°C° 2.3 mm 6 mps 751 mmHg 90%
    02:00 +14°C° 2.3 mm 6 mps 751 mmHg 89%
    03:00 +14°C° 2.3 mm 5 mps 750 mmHg 89%
    04:00 +13°C° 1.3 mm 5 mps 750 mmHg 88%
    05:00 +13°C° 1.3 mm 5 mps 749 mmHg 88%
    06:00 +13°C° 1.3 mm 5 mps 749 mmHg 88%
    07:00 +13°C° 1.4 mm 5 mps 749 mmHg 88%
    08:00 +13°C° 1.4 mm 5 mps 749 mmHg 89%
    09:00 +13°C° 1.4 mm 5 mps 749 mmHg 90%
    10:00 +13°C° 1.5 mm 5 mps 749 mmHg 89%
    11:00 +13°C° 1.5 mm 5 mps 749 mmHg 89%
    12:00 +14°C° 1.5 mm 5 mps 749 mmHg 89%
    13:00 +14°C° 1.7 mm 6 mps 748 mmHg 88%
    14:00 +14°C° 1.7 mm 7 mps 748 mmHg 88%
    15:00 +13°C° 1.7 mm 8 mps 748 mmHg 88%
    16:00 +13°C° 1.1 mm 8 mps 749 mmHg 88%
    17:00 +12°C° 1.1 mm 7 mps 749 mmHg 89%
    18:00 +12°C° 1.1 mm 7 mps 749 mmHg 89%
    19:00 +13°C° 0.1 mm 6 mps 750 mmHg 89%
    20:00 +13°C° 0.1 mm 5 mps 750 mmHg 89%
    21:00 +12°C° 0.1 mm 4 mps 751 mmHg 89%
    22:00 +12°C° 0 mm 3 mps 751 mmHg 88%
    23:00 +12°C° 0 mm 3 mps 751 mmHg 87%

    Day after tomorrow, 20 November, Tuesday

    Time Temperature Precipitation Wind Pressure Humidity
    00:00 +13°C° 0 mm 2 mps 751 mmHg 86%
    01:00 +12°C° 0 mm 3 mps 751 mmHg 86%
    02:00 +12°C° 0 mm 3 mps 751 mmHg 85%
    03:00 +12°C° 0 mm 4 mps 751 mmHg 85%
    04:00 +12°C° 0 mm 5 mps 751 mmHg 85%
    05:00 +12°C° 0 mm 5 mps 751 mmHg 85%
    06:00 +11°C° 0 mm 6 mps 751 mmHg 85%
    07:00 +13°C° 0 mm 6 mps 752 mmHg 79%
    08:00 +14°C° 0 mm 6 mps 752 mmHg 73%
    09:00 +15°C° 0 mm 7 mps 752 mmHg 68%
    10:00 +16°C° 0 mm 7 mps 752 mmHg 62%
    11:00 +18°C° 0 mm 7 mps 752 mmHg 56%
    12:00 +20°C° 0 mm 7 mps 752 mmHg 50%
    13:00 +20°C° 0 mm 7 mps 752 mmHg 49%
    14:00 +20°C° 0 mm 8 mps 752 mmHg 48%
    15:00 +20°C° 0 mm 8 mps 751 mmHg 48%
    16:00 +17°C° 0.1 mm 7 mps 752 mmHg 52%
    17:00 +16°C° 0.1 mm 7 mps 752 mmHg 57%
    18:00 +14°C° 0.1 mm 6 mps 752 mmHg 62%
    19:00 +14°C° 0 mm 6 mps 753 mmHg 63%
    20:00 +14°C° 0 mm 6 mps 753 mmHg 64%
    21:00 +14°C° 0 mm 5 mps 754 mmHg 65%
    22:00 +13°C° 0 mm 6 mps 754 mmHg 67%
    23:00 +13°C° 0 mm 6 mps 754 mmHg 68%

    21 November, Wednesday

    Time Temperature Precipitation Wind Pressure Humidity
    00:00 +13°C° 0 mm 6 mps 754 mmHg 69%
    01:00 +13°C° 0 mm 6 mps 755 mmHg 69%
    02:00 +11°C° 0 mm 6 mps 755 mmHg 69%
    03:00 +11°C° 0 mm 6 mps 755 mmHg 69%
    04:00 +11°C° 0 mm 6 mps 755 mmHg 69%
    05:00 +11°C° 0 mm 7 mps 755 mmHg 70%
    06:00 +11°C° 0 mm 7 mps 755 mmHg 70%
    07:00 +12°C° 0 mm 7 mps 756 mmHg 66%
    08:00 +14°C° 0 mm 7 mps 757 mmHg 63%
    09:00 +14°C° 0 mm 7 mps 757 mmHg 59%
    10:00 +15°C° 0 mm 7 mps 757 mmHg 54%
    11:00 +16°C° 0 mm 7 mps 758 mmHg 49%
    12:00 +17°C° 0 mm 7 mps 758 mmHg 44%
    13:00 +19°C° 0 mm 6 mps 758 mmHg 44%
    14:00 +19°C° 0 mm 6 mps 758 mmHg 43%
    15:00 +19°C° 0 mm 5 mps 758 mmHg 43%
    16:00 +16°C° 0 mm 5 mps 758 mmHg 47%
    17:00 +15°C° 0 mm 4 mps 759 mmHg 52%
    18:00 +14°C° 0 mm 4 mps 759 mmHg 57%
    19:00 +14°C° 0 mm 3 mps 759 mmHg 59%
    20:00 +14°C° 0 mm 2 mps 760 mmHg 61%
    21:00 +14°C° 0 mm 2 mps 760 mmHg 64%
    22:00 +14°C° 0 mm 1 mps 760 mmHg 64%
    23:00 +14°C° 0 mm 1 mps 760 mmHg 64%

    22 November, Thursday

    Time Temperature Precipitation Wind Pressure Humidity
    00:00 +14°C° 0 mm 1 mps 760 mmHg 64%
    01:00 +13°C° 0 mm 1 mps 760 mmHg 64%
    02:00 +13°C° 0 mm 2 mps 760 mmHg 65%
    03:00 +13°C° 0 mm 2 mps 760 mmHg 66%
    04:00 +11°C° 0 mm 3 mps 760 mmHg 67%
    05:00 +11°C° 0 mm 3 mps 760 mmHg 68%
    06:00 +11°C° 0 mm 3 mps 760 mmHg 69%
    07:00 +12°C° 0 mm 3 mps 760 mmHg 65%
    08:00 +13°C° 0 mm 3 mps 761 mmHg 60%
    09:00 +15°C° 0 mm 2 mps 761 mmHg 56%
    10:00 +16°C° 0 mm 2 mps 761 mmHg 54%
    11:00 +17°C° 0 mm 2 mps 761 mmHg 51%
    12:00 +18°C° 0 mm 2 mps 761 mmHg 49%
    13:00 +18°C° 0 mm 2 mps 760 mmHg 48%
    14:00 +18°C° 0 mm 2 mps 760 mmHg 47%
    15:00 +19°C° 0 mm 3 mps 760 mmHg 46%
    16:00 +17°C° 0 mm 2 mps 761 mmHg 54%
    17:00 +16°C° 0 mm 2 mps 761 mmHg 61%
    18:00 +14°C° 0 mm 2 mps 761 mmHg 68%
    19:00 +14°C° 0 mm 2 mps 761 mmHg 71%
    20:00 +14°C° 0 mm 2 mps 762 mmHg 73%
    21:00 +13°C° 0 mm 2 mps 762 mmHg 75%
    22:00 +13°C° 0 mm 2 mps 762 mmHg 77%
    23:00 +13°C° 0 mm 1 mps 762 mmHg 79%

    23 November, Friday

    Time Temperature Precipitation Wind Pressure Humidity
    00:00 +12°C° 0 mm 1 mps 762 mmHg 81%
    01:00 +13°C° 0 mm 1 mps 762 mmHg 79%
    02:00 +13°C° 0 mm 2 mps 762 mmHg 78%
    03:00 +13°C° 0 mm 2 mps 762 mmHg 77%
    04:00 +13°C° 0 mm 2 mps 762 mmHg 77%
    05:00 +12°C° 0 mm 1 mps 762 mmHg 77%
    06:00 +12°C° 0 mm 1 mps 763 mmHg 77%
    07:00 +13°C° 0 mm 2 mps 763 mmHg 72%
    08:00 +14°C° 0 mm 2 mps 763 mmHg 67%
    09:00 +15°C° 0 mm 2 mps 764 mmHg 62%
    10:00 +16°C° 0 mm 2 mps 764 mmHg 59%
    11:00 +17°C° 0 mm 2 mps 763 mmHg 56%
    12:00 +18°C° 0 mm 2 mps 763 mmHg 54%
    13:00 +18°C° 0 mm 3 mps 763 mmHg 55%
    14:00 +18°C° 0 mm 3 mps 763 mmHg 55%
    15:00 +19°C° 0 mm 3 mps 762 mmHg 56%
    16:00 +17°C° 0 mm 3 mps 762 mmHg 65%
    17:00 +16°C° 0 mm 3 mps 763 mmHg 74%
    18:00 +15°C° 0 mm 2 mps 763 mmHg 83%
    19:00 +15°C° 0 mm 2 mps 763 mmHg 85%
    20:00 +15°C° 0 mm 2 mps 763 mmHg 86%
    21:00 +15°C° 0 mm 2 mps 763 mmHg 88%
    22:00 +15°C° 0 mm 2 mps 763 mmHg 87%
    23:00 +14°C° 0 mm 2 mps 763 mmHg 86%
    Show more